Regional Weather Roundup
Issued by NWS

Home | Current Version | Previous Version | Graphics & Text | Print | Product List | Glossary On
Versions: 1 2 3 4 5 6 7 8 9 10 11 12 13 14 15 16 17 18 19 20 21 22 23 24 25 26 27 28 29 30 31 32 33 34 35 36 37 38 39 40 41 42 43 44 45 46 47 48 49 50
000
ASUS43 KLOT 270800
RWRIL

ILLINOIS REGIONAL WEATHER ROUNDUP
NATIONAL WEATHER SERVICE CHICAGO/ROMEOVILLE IL
300 AM CDT WED AUG 27 2014

NOTE: "FAIR" INDICATES FEW OR NO CLOUDS BELOW 12,000 FEET WITH NO
SIGNIFICANT WEATHER AND/OR OBSTRUCTIONS TO VISIBILITY.

* THESE STATIONS ARE NOT UNDER NWS QUALITY CONTROL. THEY ALSO MAY NOT
  REPORT WEATHER SUCH AS PRECIPITATION OR FOG.

ILZ001-002-007-009-015-016-024-270900-
NORTHWEST ILLINOIS

CITY           SKY/WX    TMP DP  RH WIND       PRES   REMARKS
MOLINE         CLOUDY    72  65  78 CALM      30.12F
STERLING*      CLOUDY    70  64  83 N5        30.14R
$$

ILZ003-004-008-010-011-017-018-270900-
NORTH CENTRAL ILLINOIS

CITY           SKY/WX    TMP DP  RH WIND       PRES   REMARKS
ROCKFORD       CLOUDY    68  59  73 NE8       30.15R
FREEPORT*      CLOUDY    64  61  91 CALM      30.17S
ROCHELLE*      CLOUDY    67  63  85 CALM      30.14S
$$

ILZ005-006-012>014-019>023-270900-
NORTHEAST ILLINOIS

CITY           SKY/WX    TMP DP  RH WIND       PRES   REMARKS
CHICAGO-OHARE  MOCLDY    71  63  75 N3        30.11S
CHICAGO-MIDWAY MOCLDY    73  66  78 N5        30.11R
AURORA         CLOUDY    68  64  87 N6        30.12S
WAUKEGAN       MOCLDY    65  61  87 N3        30.13R
DUPAGE AIRPORT MOCLDY    68  64  87 N7        30.12S
WHEELING       MOCLDY    68  65  90 N5        30.13S
NORTHERLY ISL    N/A     71  64  78 N5          N/A
$$

LMZ740>746-270900-
SOUTHERN LAKE MICHIGAN

STATION/POSITION SKY/WX   TEMP    WIND        PRES    VSBY  WAVE
                          AIR SEA DIR/SP/G                  HT/PER
                          (F)     (DEG/KT/KT) (MB)    (MI)  (FT/S)
SOUTHERN BUOY              68 69  360/  2/  2 1019.8F         0
WAUKEGAN HARBOR            67     330/  4/  5   N/A
HARRISON CRIB              71      40/  4/  4   N/A
BURNHAM HARBOR             70      20/  7       N/A
CALUMET HARBOR             71      30/  4/  6 1018.3S
MICHIGAN CITY              67      70/  6/  7   N/A
MICHIGAN CITY 6N           70 72   80/  8/ 10   N/A           1/ 3
$$

ILZ025>027-034>036-040-047-049-050-058-095>099-270900-
WEST-CENTRAL ILLINOIS

CITY           SKY/WX    TMP DP  RH WIND       PRES   REMARKS
QUINCY         PTCLDY    72  69  90 N5        30.10S
MACOMB*        CLOUDY    71  69  93 N5        30.13S
$$

ILZ028>032-037-038-041>044-048-051>054-059>061-270900-
CENTRAL ILLINOIS

CITY           SKY/WX    TMP DP  RH WIND       PRES   REMARKS
DECATUR        PTCLDY    68  66  93 SE5       30.10R
PEORIA         MOCLDY    75  67  76 NE6       30.11R
SPRINGFIELD    PTCLDY    72  65  78 W6        30.08S
TAYLORVILLE    NOT AVBL
$$

ILZ033-039-045-046-055>057-062-063-270900-
EAST-CENTRAL ILLINOIS

CITY           SKY/WX    TMP DP  RH WIND       PRES   REMARKS
CHAMPAIGN      MOCLDY    68  65  90 NW5       30.09F
MATTOON        CLOUDY    71  69  93 N3        30.08S
$$

ILZ079-100>102-270900-
SOUTHWEST ILLINOIS

CITY           SKY/WX    TMP DP  RH WIND       PRES   REMARKS
BELLEVILLE     PTCLDY    72  70  95 VRB1      30.06F
$$

ILZ064>066-069>071-074>076-080>082-084>086-088>090-092>094-270900-
SOUTH-CENTRAL ILLINOIS

CITY           SKY/WX    TMP DP  RH WIND       PRES   REMARKS
CARBONDALE     PTCLDY    73  71  93 CALM      30.07S FOG
MT. VERNON     CLEAR     73  70  88 CALM      30.07S
SALEM*         PTCLDY    73  70  92 CALM      30.07F
$$

ILZ067-068-072-073-078-083-087-091-270900-
SOUTHEAST ILLINOIS

CITY           SKY/WX    TMP DP  RH WIND       PRES   REMARKS
LAWRENCEVILLE  MOCLDY    73  72  96 CALM      30.06F FOG
HARRISBURG*    CLEAR     72  72 100 CALM      30.07F FOG
ROBINSON*      CLOUDY    73  72  97 N6        30.09R
$$

ABBREVIATIONS USED IN REMARKS
   TC - TEMPERATURE IN CELSIUS
  WCI - WIND CHILL INDEX
   HX - HEAT INDEX
  VSB - VISIBILITY
$$



USA.gov is the U.S. government's official web portal to all federal, state and local government web resources and services.